Location: Devore Heights
(34.2372°N, 117.4156°W)
Time: 08:59:18
(UTC+00:00)

Altair - Pass Details

Date: 15 September 2024
Orbit: 1501 x 1682 km, 47.2° (Epoch: 07 October)

Event Time Altitude Azimuth Distance (km) Brightness Sun altitude
Rises 17:49:44 0° 302° (WNW) 4,932 9.8 48.6°
Reaches altitude 10° 17:53:07 10° 296° (WNW) 3,932 9.4 49.1°
Maximum altitude 18:02:24 44° 229° (SW) 2,147 8.8 50.4°
Drops below altitude 10° 18:11:27 10° 161° (SSE) 3,809 10.4 51.7°
Sets 18:14:41 0° 154° (SSE) 4,766 10.7 52.1°
